Vertical_Velocity
0 -5 8 2 0 -13 -5 5 1 4 -4 -0 1 0 3 1 -2 -2 -1 -4 -1 -3 -1 -1 -1 1 -2 -1 -0 -4 -13 2 4 7 10 -3 -3 -2 -3 0 -4 -2 -1 -2 3
-0 -1 -0 16 -0 6 -2 1 2 2 0 -1 2 0 -1 -0 -2 -2 -1 -0 -1 -2 -1 -2 0 -3 -4 -3 -3 -2 -3 -2 1 3 -0 -6 -7 -4 -6 -2 -1 -4 -1 0 -0
4 -4 -1 -14 21 18 12 24 1 3 2 3 2 2 -2 -3 -4 -3 -1 -2 -1 -2 -2 -3 0 -2 -2 -3 2 -4 -4 -3 4 1 -6 -0 -4 -6 -10 -3 9 0 -5 -2 -1
-5 -2 -4 -0 16 -8 17 15 1 2 2 1 -0 0 -1 -3 -2 -3 -1 -2 -2 -3 -1 -0 -2 -3 -4 -2 -5 -6 -3 2 3 -0 -4 6 7 -8 -10 13 -1 0 -2 -5 -0
5 -2 2 -9 28 16 7 19 1 -3 -2 2 -3 -2 -4 -2 -3 -4 -2 -4 -4 -2 -1 0 0 -3 -3 1 -5 -7 3 2 3 -3 -3 -3 -1 -3 -21 -4 -0 -2 2 3 -9
5 -12 14 3 10 -4 24 4 1 1 -2 0 -2 -4 -4 -2 2 0 -1 -2 -0 -3 -0 1 -2 -1 2 -2 -6 -1 -0 0 -2 1 -4 -11 -4 -23 32 4 -1 -2 -2 -0 0
3 -3 9 -1 7 4 3 -4 -1 -1 1 -1 1 1 -1 1 1 0 2 -1 -2 -2 -3 -3 -3 0 -2 -6 -1 -4 -3 -7 2 5 -4 -12 -7 -12 8 -5 -6 -7 4 -4 -4
-4 -1 -0 4 13 -1 -1 -7 -2 -1 -0 2 -1 -2 -1 -1 0 4 1 -1 2 2 -0 2 -0 -2 1 -5 -4 -4 -10 2 2 -5 2 -8 -28 -2 -4 -2 4 -0 -2 -1 1
-3 -8 4 1 -1 -10 -3 -1 2 -1 -1 1 1 1 2 2 4 2 -0 1 2 -1 -2 -4 -3 -4 -6 -4 -2 -1 -8 -6 0 1 -5 -17 -30 22 4 -5 -5 0 -1 -3 -3
-6 -8 -9 -6 -2 -5 -7 -3 0 1 -1 -0 -1 -0 -2 -1 1 -1 -1 -3 -1 -1 -5 -4 -4 -3 -6 -4 -1 -5 -10 -5 -9 16 -18 0 -34 12 6 0 -5 -7 -5 -9 -6
1 -3 -3 -6 -5 -1 -0 1 -4 1 4 0 1 0 -2 -0 0 -3 -1 -3 -3 -3 -2 -3 -2 -4 -5 -2 -6 -3 -8 -10 7 -2 -22 10 -34 12 9 -9 -2 -8 -4 -6 -10
-7 -5 -2 -4 -3 -4 -2 -1 -1 2 1 0 -0 -1 -2 -1 -1 -1 -1 -2 -3 -5 -4 -3 -3 -2 -3 -5 -2 -3 -4 -1 22 -11 -15 6 -7 12 14 -2 -14 -8 6 2 -14
-2 -3 -5 -2 -2 1 1 -1 -1 -2 -2 -0 -1 -1 -1 -0 -1 -3 -4 -5 -4 -2 -1 -2 -1 -1 -1 -1 -1 -6 -1 -1 -2 -7 -3 -14 2 -17 6 -13 -8 3 -2 -4 -7
-1 -3 -3 -4 -3 -0 3 3 3 2 3 1 1 0 -1 -1 -3 -2 -0 -3 -3 -1 -3 -3 -1 -2 -2 -4 -4 -1 -3 -3 -2 -6 -6 -6 -12 -7 7 -3 -6 -5 -11 -11 -5
0 0 -2 -1 -4 -2 0 4 4 1 3 3 -2 -0 -1 -3 -5 -3 -5 -2 -3 -4 -4 -3 -3 -2 -1 -1 -4 -5 -6 -5 -2 -2 -0 -7 -14 16 -9 1 -4 -7 -6 -2 -6
-6 -6 -0 2 2 2 2 2 2 -1 -2 -1 -2 -1 -1 -1 2 2 1 1 -0 -2 -2 -1 -0 -2 -1 -2 -0 3 0 -0 2 -3 -1 0 -8 12 -2 -4 1 -6 -3 -2 -0
1 1 3 1 0 1 -1 -3 -1 1 -6 -5 -2 -1 -1 -2 -4 -6 -6 -6 -4 -4 -1 -0 -3 -2 -1 -1 -0 3 4 -2 3 -1 -5 2 -4 0 0 -6 -8 3 -4 -5 -2
2 1 -1 -1 -3 -2 0 -5 -3 0 -1 -2 -2 -5 -3 -4 -1 0 -1 1 1 -2 1 1 1 4 4 3 5 -0 -3 -3 -5 -3 -8 0 -2 -2 0 -6 -7 1 -2 -5 -3
1 2 2 0 1 -0 -1 -7 -5 -2 -1 -2 -4 -3 -6 -2 3 0 2 -1 -0 1 2 1 1 4 1 1 1 0 -3 -1 -1 3 -2 3 1 10 4 -5 -1 -4 5 -1 -4
-3 -1 -0 3 3 -2 -3 -5 -4 -3 -4 -1 -1 -2 -2 -1 0 0 3 1 3 0 1 1 -1 -2 -2 -3 1 -1 -5 -3 -7 -4 -9 0 -1 -3 5 13 9 9 -7 -1 4
-1 -2 -2 -1 4 -1 -1 -4 -6 -0 -3 -3 -1 -2 -3 -3 -2 -1 0 -1 2 1 1 2 -1 0 -1 1 3 2 -3 -4 0 0 -6 -2 -6 1 -5 -9 3 14 -6 3 9
-4 -4 0 -1 -3 3 -5 1 0 -8 -1 -3 -3 -1 1 0 -3 -1 -1 -3 -2 -2 0 0 1 0 -1 -0 -1 3 -1 -1 0 1 5 1 -3 -3 -3 -4 -3 0 -1 8 -10
-0 -1 -1 1 1 -2 -0 1 0 2 -5 -3 -2 -2 2 1 -1 -3 -1 -2 -2 -2 1 2 -1 1 4 -0 0 2 3 -2 -1 6 2 -2 2 7 4 5 1 -12 -10 -6 -3
1 2 2 3 0 -2 -3 1 3 2 3 -0 -5 -1 -1 0 2 1 -2 1 -2 -1 -2 0 1 -2 -2 5 3 -1 7 1 -3 4 3 2 3 7 16 13 3 8 7 5 -4
1 1 0 -1 1 3 1 0 3 4 2 4 3 -1 -3 -2 -1 1 -1 -3 -0 -1 0 -0 -1 -0 -2 2 1 2 2 3 -1 2 7 6 0 -2 8 8 9 -4 10 14 6
2 -1 -2 0 0 -1 -0 1 -3 -1 3 2 4 4 4 1 -2 -2 2 1 -3 -4 -1 0 -1 -0 -5 0 1 1 0 6 2 1 4 3 1 1 -0 10 27 20 15 11 4
-2 3 1 1 2 0 -1 2 6 2 -3 -1 1 2 0 4 3 -1 -2 -2 1 -2 -4 -4 -1 -2 1 -5 -1 2 -1 -3 3 3 2 9 6 4 2 8 6 6 16 12 15
Height
5603 5616 5630 5639 5649 5658 5665 5671 5679 5687 5696 5704 5709 5713 5716 5719 5723 5727 5730 5734 5735 5737 5738 5741 5744 5745 5747 5750 5752 5754 5757 5760 5762 5765 5769 5771 5771 5774 5776 5779 5780 5783 5787 5791 5794
5588 5599 5616 5630 5640 5652 5658 5661 5669 5679 5688 5696 5701 5705 5709 5712 5717 5720 5724 5726 5728 5731 5734 5735 5737 5737 5739 5741 5743 5744 5748 5749 5751 5753 5756 5758 5758 5759 5764 5767 5771 5773 5777 5781 5785
5578 5591 5606 5624 5634 5647 5650 5653 5660 5671 5681 5688 5693 5697 5702 5707 5711 5713 5716 5719 5722 5724 5727 5729 5729 5730 5731 5732 5733 5734 5738 5737 5738 5739 5741 5745 5746 5747 5752 5758 5762 5765 5767 5770 5773
5575 5584 5597 5610 5629 5642 5644 5650 5656 5665 5674 5680 5687 5692 5696 5700 5706 5707 5710 5712 5714 5715 5717 5718 5720 5721 5721 5723 5722 5724 5726 5725 5726 5726 5728 5730 5732 5735 5741 5751 5751 5752 5754 5756 5761
5575 5581 5590 5605 5623 5635 5638 5647 5652 5661 5669 5674 5681 5685 5690 5694 5698 5701 5703 5705 5707 5708 5708 5709 5709 5710 5710 5711 5711 5713 5715 5714 5714 5714 5713 5712 5716 5716 5727 5733 5732 5733 5737 5742 5744
5578 5583 5592 5606 5624 5637 5637 5646 5652 5659 5665 5671 5676 5680 5686 5690 5691 5692 5694 5696 5698 5699 5699 5699 5699 5701 5700 5699 5701 5703 5703 5702 5702 5701 5698 5695 5702 5700 5725 5715 5711 5716 5720 5724 5730
5582 5586 5598 5610 5624 5633 5639 5646 5652 5658 5662 5667 5672 5676 5679 5683 5683 5685 5686 5687 5688 5689 5689 5689 5690 5691 5690 5690 5692 5691 5692 5691 5690 5686 5683 5678 5692 5697 5705 5693 5695 5695 5700 5707 5712
5589 5595 5604 5615 5628 5637 5643 5649 5653 5658 5661 5666 5669 5671 5673 5674 5675 5676 5676 5677 5678 5678 5678 5678 5678 5679 5679 5680 5680 5680 5680 5681 5676 5672 5667 5661 5684 5683 5684 5676 5679 5681 5683 5686 5693
5596 5605 5611 5623 5633 5641 5646 5647 5650 5655 5658 5661 5665 5667 5667 5668 5668 5668 5667 5668 5668 5668 5668 5668 5669 5670 5670 5670 5670 5667 5669 5668 5666 5658 5650 5647 5671 5674 5670 5655 5657 5661 5664 5667 5673
5607 5617 5623 5633 5640 5645 5648 5649 5653 5656 5659 5661 5662 5664 5663 5662 5661 5660 5660 5660 5660 5659 5659 5660 5660 5659 5659 5658 5658 5656 5656 5656 5653 5647 5636 5640 5653 5663 5650 5636 5638 5642 5646 5650 5655
5616 5623 5630 5636 5643 5647 5649 5652 5657 5658 5655 5656 5656 5657 5657 5656 5654 5653 5652 5652 5651 5650 5651 5650 5651 5649 5649 5648 5647 5645 5643 5642 5637 5631 5628 5629 5634 5649 5630 5615 5621 5625 5628 5631 5635
5631 5636 5641 5644 5647 5649 5651 5652 5653 5654 5653 5653 5652 5651 5650 5648 5647 5646 5646 5645 5643 5641 5641 5641 5640 5639 5639 5637 5636 5633 5631 5629 5629 5621 5616 5617 5626 5625 5612 5605 5598 5604 5607 5606 5609
5643 5647 5650 5652 5653 5653 5653 5654 5653 5650 5650 5649 5647 5646 5645 5643 5639 5638 5637 5634 5633 5632 5631 5631 5632 5631 5629 5628 5627 5625 5625 5622 5620 5617 5615 5609 5614 5606 5601 5591 5587 5583 5582 5584 5587
5653 5654 5654 5655 5656 5655 5654 5651 5648 5646 5645 5645 5644 5642 5640 5638 5636 5634 5632 5632 5630 5629 5627 5627 5627 5627 5626 5625 5625 5624 5622 5619 5617 5616 5614 5609 5605 5600 5593 5583 5576 5569 5563 5558 5560
5667 5664 5661 5658 5657 5655 5654 5650 5647 5644 5644 5644 5641 5641 5640 5640 5639 5637 5634 5632 5632 5630 5629 5629 5627 5626 5626 5626 5625 5623 5620 5618 5615 5612 5610 5605 5598 5592 5579 5573 5563 5554 5548 5542 5535
5673 5670 5668 5665 5661 5658 5655 5650 5646 5645 5643 5643 5644 5644 5644 5643 5641 5639 5638 5635 5633 5631 5629 5628 5627 5627 5627 5625 5623 5621 5619 5616 5613 5610 5606 5598 5590 5586 5574 5564 5559 5548 5536 5524 5516
5681 5678 5675 5672 5667 5661 5655 5651 5647 5644 5646 5648 5648 5647 5647 5646 5644 5641 5638 5636 5634 5633 5631 5630 5630 5629 5627 5624 5622 5620 5616 5614 5611 5606 5599 5592 5586 5578 5569 5561 5553 5545 5535 5524 5515
5686 5683 5679 5675 5670 5664 5658 5653 5648 5646 5648 5651 5651 5651 5649 5647 5645 5643 5641 5639 5637 5635 5634 5633 5632 5629 5627 5624 5621 5618 5615 5611 5606 5602 5597 5589 5582 5574 5566 5560 5554 5545 5539 5531 5522
5693 5688 5684 5680 5675 5669 5664 5655 5652 5651 5652 5653 5653 5653 5651 5648 5646 5644 5642 5641 5639 5637 5636 5634 5633 5630 5627 5625 5623 5618 5615 5611 5608 5603 5596 5589 5582 5572 5566 5561 5552 5546 5542 5539 5533
5698 5695 5691 5686 5681 5675 5670 5663 5658 5657 5656 5656 5655 5654 5652 5651 5649 5646 5645 5644 5641 5639 5638 5636 5634 5632 5629 5625 5622 5618 5617 5613 5607 5600 5597 5591 5582 5574 5568 5560 5553 5549 5545 5544 5542
5704 5699 5696 5691 5687 5680 5675 5671 5666 5662 5661 5659 5658 5657 5656 5654 5652 5650 5650 5648 5645 5642 5640 5637 5635 5634 5630 5627 5624 5622 5618 5614 5610 5604 5599 5591 5586 5576 5568 5562 5556 5550 5548 5545 5544
5709 5705 5701 5697 5693 5686 5680 5675 5672 5668 5665 5663 5661 5659 5658 5657 5656 5653 5652 5650 5648 5644 5642 5640 5637 5635 5633 5629 5626 5623 5619 5617 5614 5609 5603 5596 5592 5582 5574 5567 5563 5558 5556 5549 5545
5712 5709 5705 5700 5696 5692 5687 5682 5677 5674 5671 5667 5664 5662 5660 5659 5659 5657 5655 5654 5651 5647 5645 5643 5641 5638 5636 5634 5630 5627 5623 5619 5616 5611 5605 5600 5597 5589 5582 5576 5572 5569 5565 5562 5558
5715 5711 5707 5704 5699 5695 5692 5688 5683 5678 5675 5674 5670 5666 5664 5661 5659 5659 5658 5656 5654 5650 5649 5647 5645 5642 5640 5637 5634 5631 5627 5622 5618 5613 5610 5606 5601 5595 5590 5586 5580 5576 5574 5572 5570
5718 5714 5709 5706 5702 5698 5694 5692 5689 5684 5680 5676 5675 5672 5668 5665 5662 5660 5658 5658 5657 5653 5651 5650 5648 5645 5642 5640 5637 5634 5630 5625 5620 5617 5613 5610 5606 5601 5597 5593 5589 5583 5583 5581 5579
5721 5717 5711 5706 5703 5700 5698 5694 5691 5688 5685 5681 5676 5675 5673 5669 5666 5663 5659 5657 5658 5656 5653 5651 5650 5648 5645 5643 5640 5637 5633 5629 5623 5622 5619 5615 5611 5606 5604 5601 5599 5595 5594 5593 5592
5723 5718 5714 5710 5705 5702 5699 5696 5693 5690 5688 5684 5681 5676 5674 5672 5669 5666 5662 5659 5658 5656 5654 5652 5650 5649 5647 5646 5643 5641 5638 5633 5629 5627 5623 5621 5617 5613 5610 5608 5607 5605 5603 5602 5601